Weather History for KLSB - June, 2013

Change the Weather History Date:

Tuesday, June 25, 2013

  Actual Average Record
Temperature  
Mean Temperature 78 °F -  
Max Temperature 96 °F - - ()
Min Temperature 60 °F - - ()
Cooling Degree Days 13    
Growing Degree Days 28 (Base 50)    
Moisture  
Dew Point 20 °F    
Average Humidity 12    
Maximum Humidity 23    
Minimum Humidity 5    
Precipitation  
Precipitation 0.00 in - - ()
Sea Level Pressure  
Sea Level Pressure 30.06 in    
Wind  
Wind Speed 8 mph (WNW)    
Max Wind Speed 21 mph    
Max Gust Speed 30 mph    
Visibility 10 miles    
Events      
T = Trace of Precipitation, MM = Missing Value Source: NWS Daily Summary

Daily Weather History Graph

Daily Weather History Graph

Search for Another Location

Airport or City:

Trip Planner

Search our weather history database for the weather conditions in past years. The results will help you decide how hot, cold, wet, or windy it might be!

Date:

Astronomy

Jun. 25, 2013 Rise Set
Actual Time 6:09 AM MDT 8:25 PM MDT
Civil Twilight 5:41 AM MDT 8:53 PM MDT
Nautical Twilight 5:06 AM MDT 9:28 PM MDT
Astronomical Twilight 4:28 AM MDT 10:06 PM MDT
Moon 10:24 PM MDT (6/25) 8:43 AM MDT (6/25)
Length of Visible Light 15h 12m
Length of Day
14h 16m
Waning Gibbous, 92% of the Moon is Illuminated
Jun 25
Waning Gibbous
Jun 29
Last Quarter
Jul 8
New
Jul 15
First Quarter
Jul 22
Full

Hourly Weather History & Observations

Time (MDT) Temp. Dew Point Humidity Pressure Visibility Wind Dir Wind Speed Gust Speed Precip Events Conditions
12:15 AM 75.2 °F 21.2 °F 13% 30.03 in 10.0 mi West 6.9 mph - N/A   Clear
12:35 AM 73.4 °F 21.2 °F 14% 30.03 in 10.0 mi West 5.8 mph - N/A   Clear
12:55 AM 71.6 °F 19.4 °F 14% 30.03 in 10.0 mi WNW 6.9 mph - N/A   Clear
1:15 AM 73.4 °F 19.4 °F 13% 30.03 in 10.0 mi WNW 9.2 mph - N/A   Clear
1:35 AM 73.4 °F 19.4 °F 13% 30.03 in 10.0 mi West 9.2 mph - N/A   Clear
1:55 AM 75.2 °F 19.4 °F 12% 30.03 in 10.0 mi WNW 9.2 mph - N/A   Clear
2:15 AM 66.2 °F 19.4 °F 17% 30.03 in 10.0 mi NW 8.1 mph - N/A   Clear
2:35 AM 66.2 °F 19.4 °F 17% 30.04 in 10.0 mi NNW 6.9 mph - N/A   Clear
2:55 AM 68.0 °F 19.4 °F 16% 30.04 in 10.0 mi Calm Calm - N/A   Clear
3:15 AM 64.4 °F 19.4 °F 18% 30.04 in 10.0 mi NNE 3.5 mph - N/A   Clear
3:35 AM 68.0 °F 21.2 °F 17% 30.04 in 10.0 mi Calm Calm - N/A   Clear
3:55 AM 69.8 °F 23.0 °F 17% 30.04 in 10.0 mi NW 3.5 mph - N/A   Clear
4:15 AM 66.2 °F 21.2 °F 18% 30.04 in 10.0 mi WNW 4.6 mph - N/A   Clear
4:35 AM 64.4 °F 19.4 °F 18% 30.04 in 10.0 mi West 5.8 mph - N/A   Clear
4:55 AM 62.6 °F 21.2 °F 20% 30.04 in 10.0 mi West 6.9 mph - N/A   Clear
5:15 AM 62.6 °F 21.2 °F 20% 30.06 in 10.0 mi WNW 8.1 mph - N/A   Clear
5:35 AM 64.4 °F 23.0 °F 21% 30.06 in 10.0 mi WNW 8.1 mph - N/A   Clear
5:55 AM 62.6 °F 23.0 °F 22% 30.07 in 10.0 mi Calm Calm - N/A   Clear
6:15 AM 60.8 °F 21.2 °F 22% 30.07 in 10.0 mi Calm Calm - N/A   Clear
6:35 AM 60.8 °F 23.0 °F 23% 30.07 in 10.0 mi Calm Calm - N/A   Clear
6:55 AM 64.4 °F 23.0 °F 21% 30.08 in 10.0 mi North - - N/A   Clear
7:15 AM 68.0 °F 23.0 °F 18% 30.08 in 10.0 mi Calm Calm - N/A   Clear
7:35 AM 71.6 °F 26.6 °F 19% 30.09 in 10.0 mi Calm Calm - N/A   Clear
7:55 AM 73.4 °F 28.4 °F 19% 30.10 in 10.0 mi Calm Calm - N/A   Clear
8:15 AM 77.0 °F 30.2 °F 18% 30.10 in 10.0 mi WNW 8.1 mph - N/A   Clear
8:35 AM 77.0 °F 30.2 °F 18% 30.11 in 10.0 mi NNW 6.9 mph - N/A   Clear
8:55 AM 78.8 °F 32.0 °F 18% 30.11 in 10.0 mi NW 6.9 mph - N/A   Clear
9:15 AM 80.6 °F 32.0 °F 17% 30.11 in 10.0 mi NW 10.4 mph - N/A   Clear
9:35 AM 82.4 °F 33.8 °F 17% 30.11 in 10.0 mi WNW 5.8 mph - N/A   Clear
9:55 AM 82.4 °F 33.8 °F 17% 30.11 in 10.0 mi WNW 5.8 mph - N/A   Clear
10:15 AM 84.2 °F 33.8 °F 16% 30.11 in 10.0 mi West 10.4 mph 16.1 mph N/A   Clear
10:35 AM 84.2 °F 33.8 °F 16% 30.11 in 10.0 mi WNW 6.9 mph 19.6 mph N/A   Clear
10:55 AM 86.0 °F 32.0 °F 14% 30.11 in 10.0 mi NW 15.0 mph 19.6 mph N/A   Clear
11:15 AM 86.0 °F 32.0 °F 14% 30.11 in 10.0 mi West 5.8 mph - N/A   Clear
11:35 AM 87.8 °F 30.2 °F 13% 30.11 in 10.0 mi NW 8.1 mph 20.7 mph N/A   Clear
11:55 AM 89.6 °F 28.4 °F 11% 30.10 in 10.0 mi North - - N/A   Clear
12:15 PM 89.6 °F 28.4 °F 11% 30.10 in 10.0 mi West 13.8 mph 20.7 mph N/A   Clear
12:35 PM 89.6 °F 26.6 °F 10% 30.09 in 10.0 mi WNW 17.3 mph 21.9 mph N/A   Clear
12:55 PM 91.4 °F 24.8 °F 9% 30.09 in 10.0 mi WNW 11.5 mph 21.9 mph N/A   Clear
1:15 PM 93.2 °F 23.0 °F 8% 30.09 in 10.0 mi West 16.1 mph 29.9 mph N/A   Clear
1:35 PM 93.2 °F 21.2 °F 7% 30.08 in 10.0 mi West 20.7 mph 27.6 mph N/A   Clear
1:55 PM 93.2 °F 19.4 °F 7% 30.08 in 10.0 mi WNW 11.5 mph 23.0 mph N/A   Clear
2:15 PM 95.0 °F 19.4 °F 6% 30.07 in 10.0 mi West 12.7 mph 24.2 mph N/A   Clear
2:35 PM 95.0 °F 19.4 °F 6% 30.07 in 10.0 mi West 11.5 mph 26.5 mph N/A   Clear
2:55 PM 95.0 °F 19.4 °F 6% 30.06 in 10.0 mi West 12.7 mph 26.5 mph N/A   Clear
3:15 PM 95.0 °F 17.6 °F 6% 30.06 in 10.0 mi WSW 12.7 mph 27.6 mph N/A   Clear
3:35 PM 95.0 °F 17.6 °F 6% 30.05 in 10.0 mi WNW 11.5 mph 25.3 mph N/A   Clear
3:55 PM 95.0 °F 17.6 °F 6% 30.04 in 10.0 mi WNW 19.6 mph 26.5 mph N/A   Clear
4:15 PM 95.0 °F 15.8 °F 6% 30.03 in 10.0 mi WNW 13.8 mph 21.9 mph N/A   Clear
4:35 PM 96.8 °F 15.8 °F 5% 30.03 in 10.0 mi WNW 15.0 mph 23.0 mph N/A   Clear
4:55 PM 96.8 °F 17.6 °F 6% 30.02 in 10.0 mi WNW 13.8 mph 24.2 mph N/A   Clear
5:15 PM 96.8 °F 15.8 °F 5% 30.01 in 10.0 mi NW 13.8 mph 20.7 mph N/A   Clear
5:35 PM 96.8 °F 17.6 °F 6% 30.01 in 10.0 mi NW 15.0 mph 21.9 mph N/A   Clear
5:55 PM 95.0 °F 15.8 °F 6% 30.01 in 10.0 mi WNW 18.4 mph 24.2 mph N/A   Clear
6:15 PM 95.0 °F 14.0 °F 5% 30.00 in 10.0 mi NW 18.4 mph 23.0 mph N/A   Clear
6:35 PM 95.0 °F 14.0 °F 5% 30.00 in 10.0 mi West 15.0 mph 25.3 mph N/A   Clear
6:55 PM 95.0 °F 12.2 °F 5% 30.00 in 10.0 mi West 12.7 mph 21.9 mph N/A   Clear
7:15 PM 93.2 °F 14.0 °F 5% 30.00 in 10.0 mi North - - N/A   Clear
7:35 PM 91.4 °F 12.2 °F 5% 30.01 in 10.0 mi WNW 11.5 mph - N/A   Clear
7:55 PM 91.4 °F 12.2 °F 5% 30.01 in 10.0 mi WNW 10.4 mph - N/A   Clear
8:15 PM 89.6 °F 10.4 °F 5% 30.01 in 10.0 mi WNW 10.4 mph - N/A   Clear
8:35 PM 87.8 °F 12.2 °F 6% 30.02 in 10.0 mi WNW 9.2 mph - N/A   Clear
8:55 PM 82.4 °F 10.4 °F 7% 30.02 in 10.0 mi WNW 8.1 mph - N/A   Clear
9:15 PM 82.4 °F 10.4 °F 7% 30.02 in 10.0 mi WNW 11.5 mph - N/A   Clear
9:35 PM 80.6 °F 10.4 °F 7% 30.03 in 10.0 mi North - - N/A   Clear
9:55 PM 77.0 °F 8.6 °F 7% 30.04 in 10.0 mi WNW 6.9 mph - N/A   Clear
10:15 PM 75.2 °F 8.6 °F 8% 30.04 in 10.0 mi WNW 5.8 mph - N/A   Clear
10:35 PM 73.4 °F 8.6 °F 8% 30.06 in 10.0 mi West 6.9 mph - N/A   Clear
10:55 PM 75.2 °F 10.4 °F 8% 30.06 in 10.0 mi West 8.1 mph - N/A   Clear
11:15 PM 73.4 °F 10.4 °F 9% 30.06 in 10.0 mi NNW 8.1 mph - N/A   Clear
11:35 PM 73.4 °F 10.4 °F 9% 30.07 in 10.0 mi West 9.2 mph - N/A   Clear
11:55 PM 71.6 °F 10.4 °F 9% 30.07 in 10.0 mi West 9.2 mph - N/A   Clear